TimeCDT,TemperatureF,Dew PointF,Humidity,Sea Level PressureIn,VisibilityMPH,Wind Direction,Wind SpeedMPH,Gust SpeedMPH,PrecipitationIn,Events,Conditions,WindDirDegrees,DateUTC
12:15 AM,58.6,54.0,84,29.93,10.0,Calm,Calm,-,N/A,,Overcast,0,2012-10-03 05:15:00
12:35 AM,58.3,55.2,90,29.93,10.0,Calm,Calm,-,N/A,,Overcast,0,2012-10-03 05:35:00
12:55 AM,58.1,55.0,90,29.93,10.0,Calm,Calm,-,N/A,,Overcast,0,2012-10-03 05:55:00
1:15 AM,58.5,53.2,83,29.94,10.0,South,6.9,-,N/A,,Overcast,190,2012-10-03 06:15:00
1:35 AM,58.5,52.7,81,29.94,10.0,South,6.9,-,N/A,,Overcast,190,2012-10-03 06:35:00
1:55 AM,58.3,52.7,82,29.95,10.0,South,4.6,-,N/A,,Overcast,180,2012-10-03 06:55:00
2:15 AM,57.2,52.0,83,29.95,10.0,South,3.5,-,N/A,,Scattered Clouds,190,2012-10-03 07:15:00
4:15 AM,51.4,50.7,97,29.98,7.0,Calm,Calm,-,N/A,,Clear,0,2012-10-03 09:15:00
4:35 AM,52.0,51.8,99,29.98,10.0,Calm,Calm,-,N/A,,Clear,0,2012-10-03 09:35:00
4:55 AM,50.9,50.9,100,29.99,4.0,Calm,Calm,-,N/A,,Clear,0,2012-10-03 09:55:00
5:15 AM,50.9,50.9,100,29.99,7.0,Calm,Calm,-,N/A,,Clear,0,2012-10-03 10:15:00
5:35 AM,49.8,49.8,100,29.99,5.0,Calm,Calm,-,N/A,,Clear,0,2012-10-03 10:35:00
5:55 AM,49.6,49.6,100,30.00,7.0,Calm,Calm,-,N/A,,Clear,0,2012-10-03 10:55:00
6:15 AM,48.7,48.7,100,30.01,3.0,Calm,Calm,-,N/A,,Clear,0,2012-10-03 11:15:00
6:55 AM,48.9,48.9,100,30.02,3.0,Calm,Calm,-,N/A,,Clear,0,2012-10-03 11:55:00
7:15 AM,48.2,48.2,100,30.02,1.0,Calm,Calm,-,N/A,,Unknown,0,2012-10-03 12:15:00
7:35 AM,49.3,49.3,100,30.03,5.0,Calm,Calm,-,N/A,,Unknown,0,2012-10-03 12:35:00
7:55 AM,52.5,52.5,100,30.03,7.0,Calm,Calm,-,N/A,,Clear,0,2012-10-03 12:55:00
8:15 AM,56.3,55.2,96,30.03,10.0,South,3.5,-,N/A,,Clear,170,2012-10-03 13:15:00
8:35 AM,59.0,53.4,82,30.04,10.0,South,4.6,-,N/A,,Clear,170,2012-10-03 13:35:00
8:55 AM,60.6,54.3,80,30.04,10.0,South,3.5,-,N/A,,Clear,190,2012-10-03 13:55:00
9:15 AM,62.2,53.1,72,30.05,10.0,Calm,Calm,-,N/A,,Clear,0,2012-10-03 14:15:00
9:35 AM,64.4,53.4,67,30.05,10.0,South,4.6,-,N/A,,Clear,190,2012-10-03 14:35:00
9:55 AM,66.4,53.2,63,30.06,10.0,South,5.8,-,N/A,,Clear,180,2012-10-03 14:55:00
10:15 AM,67.6,53.8,61,30.06,10.0,SSW,4.6,-,N/A,,Clear,200,2012-10-03 15:15:00
10:35 AM,68.9,53.2,57,30.06,10.0,South,6.9,-,N/A,,Clear,190,2012-10-03 15:35:00
10:55 AM,70.0,54.1,57,30.06,10.0,South,4.6,-,N/A,,Clear,190,2012-10-03 15:55:00
11:35 AM,72.1,52.2,49,30.06,10.0,South,6.9,-,N/A,,Clear,170,2012-10-03 16:35:00
11:55 AM,73.9,53.2,48,30.05,10.0,SSE,5.8,-,N/A,,Clear,160,2012-10-03 16:55:00
12:15 PM,74.5,52.0,45,30.05,10.0,SSW,8.1,-,N/A,,Clear,210,2012-10-03 17:15:00
12:55 PM,75.4,51.3,43,30.04,10.0,SSW,10.4,-,N/A,,Mostly Cloudy,200,2012-10-03 17:55:00
1:15 PM,76.3,52.7,44,30.03,10.0,South,9.2,-,N/A,,Scattered Clouds,190,2012-10-03 18:15:00
1:35 PM,75.6,52.7,45,30.02,10.0,South,5.8,-,N/A,,Mostly Cloudy,180,2012-10-03 18:35:00
1:55 PM,76.3,53.1,44,30.02,10.0,South,8.1,-,N/A,,Overcast,180,2012-10-03 18:55:00
2:35 PM,77.0,53.6,44,30.02,10.0,South,8.1,-,N/A,,Mostly Cloudy,170,2012-10-03 19:35:00
2:55 PM,77.2,53.6,44,30.01,10.0,South,8.1,-,N/A,,Mostly Cloudy,180,2012-10-03 19:55:00
3:15 PM,75.7,54.1,47,30.02,10.0,South,5.8,-,N/A,,Mostly Cloudy,190,2012-10-03 20:15:00
3:35 PM,75.7,54.3,47,30.01,10.0,South,4.6,-,N/A,,Mostly Cloudy,190,2012-10-03 20:35:00
3:55 PM,76.8,54.5,46,30.01,10.0,SSW,5.8,-,N/A,,Mostly Cloudy,200,2012-10-03 20:55:00
4:15 PM,75.6,55.0,49,30.02,10.0,South,4.6,-,N/A,,Mostly Cloudy,180,2012-10-03 21:15:00
4:35 PM,75.2,54.9,49,30.02,10.0,South,4.6,-,N/A,,Scattered Clouds,180,2012-10-03 21:35:00
4:55 PM,75.4,54.7,48,30.02,10.0,South,5.8,-,N/A,,Mostly Cloudy,190,2012-10-03 21:55:00
5:15 PM,75.6,54.9,48,30.02,10.0,South,5.8,-,N/A,,Scattered Clouds,180,2012-10-03 22:15:00
5:55 PM,72.0,55.4,56,30.03,10.0,SSE,4.6,-,N/A,,Clear,160,2012-10-03 22:55:00
6:15 PM,71.2,55.6,58,30.03,10.0,SSE,4.6,-,N/A,,Scattered Clouds,160,2012-10-03 23:15:00
6:35 PM,70.3,55.8,60,30.04,10.0,SSE,3.5,-,N/A,,Scattered Clouds,150,2012-10-03 23:35:00
6:55 PM,69.3,56.1,63,30.04,10.0,SSE,3.5,-,N/A,,Mostly Cloudy,150,2012-10-03 23:55:00
7:15 PM,68.7,56.1,64,30.04,10.0,SE,3.5,-,N/A,,Scattered Clouds,140,2012-10-04 00:15:00
7:55 PM,66.6,55.8,68,30.05,10.0,Calm,Calm,-,N/A,,Clear,0,2012-10-04 00:55:00
8:35 PM,67.3,55.9,67,30.07,10.0,SSE,4.6,-,N/A,Thunderstorm,Scattered Clouds,160,2012-10-04 01:35:00
8:55 PM,67.3,56.3,68,30.08,10.0,South,3.5,-,N/A,,Mostly Cloudy,170,2012-10-04 01:55:00
9:35 PM,65.5,56.3,72,30.08,10.0,Calm,Calm,-,N/A,,Scattered Clouds,0,2012-10-04 02:35:00
9:55 PM,65.3,55.9,72,30.10,10.0,SSE,3.5,-,N/A,,Scattered Clouds,160,2012-10-04 02:55:00
10:15 PM,65.5,56.1,72,30.10,10.0,Calm,Calm,-,N/A,,Scattered Clouds,0,2012-10-04 03:15:00
10:35 PM,65.3,55.9,72,30.11,10.0,Calm,Calm,-,N/A,,Scattered Clouds,0,2012-10-04 03:35:00
10:55 PM,65.3,55.8,71,30.11,10.0,Calm,Calm,-,N/A,,Scattered Clouds,0,2012-10-04 03:55:00
11:15 PM,64.8,55.4,72,30.11,10.0,Calm,Calm,-,N/A,,Mostly Cloudy,0,2012-10-04 04:15:00
11:35 PM,63.1,55.4,76,30.12,10.0,Calm,Calm,-,N/A,,Clear,0,2012-10-04 04:35:00
11:55 PM,61.9,56.3,82,30.12,10.0,Calm,Calm,-,N/A,,Mostly Cloudy,0,2012-10-04 04:55:00